{"data":{"norad_id":53476,"intl_designator":"2022-099M","name":"STARLINK-4378","alt_names":[],"object_type":"PAYLOAD","status":"ACTIVE","operator":null,"country":"US","launch_date":"2022-08-12","launch_site_code":"AFWTR","launch_vehicle":null,"mission":null,"orbit_class":"UNKNOWN","rcs_meters":null,"size_class":null,"mass_kg":null,"dimensions":null,"purposes":["comms"],"wikipedia_slug":null,"has_3d_model":false,"image_url":null,"decayed_at":null,"tle_current":{"epoch":"2026-09-20T22:00:03.000096Z","epoch_age_seconds":43017,"freshness":"FRESH","line1":"1 53476U 22099M   26263.91670139 -.00017095  00000+0 -95867-3 0  9993","line2":"2 53476  97.2840  17.8758 0001883  93.5339 181.8466 15.13348504  5581","mean_motion":15.13348504,"eccentricity":0.0001883,"inclination_deg":97.284,"raan_deg":17.8758,"arg_perigee_deg":93.5339,"mean_anomaly_deg":181.8466,"bstar":-0.00095867,"rev_number":558,"period_min":95.153231142323,"perigee_km":524.69687119258,"apogee_km":527.2969680267,"semimajor_km":6904.1339196096,"source":"CELESTRAK","updated_at":"2026-09-21T09:00:32.889133Z"}}}